Regional Weather Roundup
Issued by NWS Goodland, KS

Home | Current Version | Previous Version | Graphics & Text | Print | Product List | Glossary On
Versions: 1 2 3 4 5 6 7 8 9 10 11 12 13 14 15 16 17 18 19 20 21 22 23 24 25 26 27 28 29 30 31 32 33 34 35 36 37 38 39 40 41 42 43 44 45 46 47 48 49 50
000
ASUS43 KGLD 051659
RWRGLD

GOODLAND FORECAST AREA HOURLY WEATHER ROUNDUP
NATIONAL WEATHER SERVICE GOODLAND KS
1100 AM MDT TUE MAY 05 2015

...OFFICIAL OBSERVATIONS...

CITY           SKY/WX    TMP DP  RH WIND       PRES   REMARKS
GOODLAND KS    LGT RAIN  58  57  97 SE10      29.97S
HILL CITY KS   CLOUDY    65  57  75 S16G28    29.99R
IMPERIAL NEB   CLOUDY    54  53  97 E8        30.00S
MCCOOK NEB     FOG       59  58  96 E8        29.99S VSB 1
AKRON CO       LGT RAIN  48  48 100 E12       29.99S VSB 1/2
BURLINGTON CO  LGT RAIN  56  53  90 E13       29.96F
LIMON CO       LGT RAIN  50  49  96 E14       29.97S FOG
$$

...UNOFFICIAL OBSERVATIONS...

CITY           SKY/WX    TMP DP  RH WIND       PRES   REMARKS
GOVE KS          N/A     60  32  34 MISG        N/A
LENORA KS        N/A     65  32  29 MISG        N/A
SHARON SPRINGS   N/A     58  57  97 MISG        N/A
KIT CARSON CO    N/A     55  53  92 MISG        N/A
YUMA CO          N/A     56  56 100 E9          N/A
$$



USA.gov is the U.S. government's official web portal to all federal, state and local government web resources and services.